Regional Weather Roundup
Issued by NWS Wilmington, NC

Home | Current Version | Previous Version | Text Only | Print | Product List | Glossary On
Versions: 1 2 3 4 5 6 7 8 9 10 11 12 13 14 15 16 17 18 19 20 21 22 23 24 25 26 27 28 29 30 31 32 33 34 35 36 37 38 39 40 41 42 43 44 45 46 47 48 49 50
000
ASUS42 KILM 171913
RWRILM
RWRILM
REGIONAL HOURLY WEATHER ROUNDUP
NATIONAL WEATHER SERVICE WILMINGTON NC
200 PM EST FRI NOV 17 2017

NOTE: "FAIR" INDICATES FEW OR NO CLOUDS BELOW 12,000 FEET WITH NO
SIGNIFICANT WEATHER AND/OR OBSTRUCTIONS TO VISIBILITY.

...............WFO WILMINGTON COUNTY WARNING AREA...............

......COASTAL NC AND SC COUNTIES......

CITY           SKY/WX    TMP DP  RH WIND       PRES   REMARKS
WILMINGTON     SUNNY     60  34  37 N5        30.16F
N MYRTLE BEACH SUNNY     59  36  42 CALM      30.16F
MYRTLE BEACH   SUNNY     58  39  49 VRB6      30.18F

......INLAND NC AND SC COUNTIES.......

CITY           SKY/WX    TMP DP  RH WIND       PRES   REMARKS
LUMBERTON      SUNNY     59  33  37 VRB3      30.16F
ELIZABETHTOWN  NOT AVBL
WHITEVILLE     SUNNY     57  34  41 W5        30.16F
FLORENCE       SUNNY     61  34  36 VRB3      30.17F
DARLINGTON     SUNNY     60  34  37 VRB3      30.17F
KINGSTREE      FAIR      59  34  38 CALM      30.17F
HARTSVILLE     FAIR      59  32  36 CALM      30.15F
BENNETTSVILLE  FAIR      61  32  33 NE3       30.17F
CONWAY         FAIR      59  36  41 NE3       30.17F
GEORGETOWN     FAIR      59  36  41 E6        30.17F
MARION         FAIR      57  34  41 N3        30.17F

....................REST OF NORTH CAROLINA......................

.........EASTERN NC.........

CITY           SKY/WX    TMP DP  RH WIND       PRES   REMARKS
CAPE HATTERAS  SUNNY     54  42  64 N9G18     30.15F
JACKSONVILLE   SUNNY     57  35  43 CALM      30.16F
MOREHEAD CITY  SUNNY     57  37  47 N7        30.15F
KENANSVILLE    SUNNY     55  32  41 N3        30.17F
NEW BERN       SUNNY     55  37  50 N6        30.17F
ELIZABETH CITY SUNNY     56  36  47 NW9       30.16F

.........CENTRAL NC.........

CITY           SKY/WX    TMP DP  RH WIND       PRES   REMARKS
RALEIGH DURHAM CLOUDY    55  30  38 NE5       30.18F
ROCKY MOUNT    CLOUDY    56  31  38 N3        30.17F
ROANOKE RAPIDS NOT AVBL
FAYETTEVILLE   SUNNY     57  33  40 VRB3      30.17F
HOFFMAN        SUNNY     58  32  38 CALM      30.16F

.........WESTERN NC.........

CITY           SKY/WX    TMP DP  RH WIND       PRES   REMARKS
CHARLOTTE      MOSUNNY   61  28  28 VRB3      30.16F
GREENSBORO     CLOUDY    55  28  35 CALM      30.15F
HICKORY        NOT AVBL
BOONE          NOT AVBL
ASHEVILLE      NOT AVBL

.....................REST OF SOUTH CAROLINA.....................

.........EASTERN SC.........

CITY           SKY/WX    TMP DP  RH WIND       PRES   REMARKS
CHARLESTON     SUNNY     64  38  38 CALM      30.15F
BEAUFORT MCAS  SUNNY     65  40  39 E7        30.15F
HILTON HEAD    SUNNY     61  50  67 NE9       30.17F

.........CENTRAL SC.........

CITY           SKY/WX    TMP DP  RH WIND       PRES   REMARKS
COLUMBIA       MOSUNNY   65  33  30 N3        30.16F
ORANGEBURG     SUNNY     62  33  33 NE6       30.17F
SUMTER SHAW    SUNNY     61  32  34 CALM      30.14F

.........WESTERN SC.........

CITY           SKY/WX    TMP DP  RH WIND       PRES   REMARKS
GREENVILLE     NOT AVBL
ROCK HILL      SUNNY     61  29  29 VRB3      30.16F
ANDERSON       SUNNY     64  34  32 S7        30.15F
CLEMSON        NOT AVBL
GREENWOOD      SUNNY     62  35  36 VRB3      30.17F


...................COASTAL AND OFFSHORE REPORTS..................

................LOCAL PIERS AND NC RESERVE................


STATION/POSITION TIME  SKY/WX   TEMP    WIND        PRES    VSBY
                                AIR SEA DIR/SP/G
                 (UTC)          (F)     (DEG/KT/KT) (MB)    (MI)
JOHNY MRCER PIER 1824            53 63   60/  7/  9 1021.4
NC RESRV MASNBRO 1745            56      90/  4     1021.0
OCEAN CREST PIER NOT AVBL
SPRINGMAID  PIER 1824                               1020.9


................COASTAL AND OFFSHORE BUOYS................


STATION/POSITION TIME  SKY/WX   TEMP    WIND        PRES    VSBY
                                AIR SEA DIR/SP/G
                 (UTC)          (F)     (DEG/KT/KT) (MB)    (MI)
DIMNDSHOAL 41025 1900            53 64  360/ 17/ 21 1020.7
CAPE LOOKOUT     1900            53      10/  9/ 12 1021.2F
ONSLOW BAY 41036 NOT AVBL
ONSLOW BAY 41064 1808            54 71   60/ 12/ 16 1021.0F
ONSLOW BAY 41159 1900               71                N/A
WVE H/P(F/S)=  4/12 SWL H/P/D(F/S/D)=  2/ 90/12

MASNBO INL 41110 1859               64                N/A
WVE H/P(F/S)=  3/ 5 SWL H/P/D(F/S/D)=  2/100/13

WILM HARBR 41108 1900               64                N/A
WVE H/P(F/S)=  3/ 6

27SE WRITB 41037 1808            54 68   50/ 12/ 21 1021.1F
FRYING PAN 41013 1900            57 71   40/ 12/ 16 1020.9
SUNST NRSH 41024 1808            56 62   CALM  /  2 1021.6F
CAPRS NRSH 41029 1808            54 63   50/ 16/ 23 1021.4F
EDISTO     41004 1900            63 75   40/ 14/ 17 1020.3


..........OFFSHORE BUOYS BEYOND 100 NM OFFSHORE...........
.....IN A TRIANGLE---HAT TO BERMUDA TO BAHAMAS TO HAT.....


STATION/POSITION TIME  SKY/WX   TEMP    WIND        PRES    VSBY
                                AIR SEA DIR/SP/G
                 (UTC)          (F)     (DEG/KT/KT) (MB)    (MI)
150E HAT   41001 NOT AVBL
W BERMUDA  41048 1900            72 76  360/ 16/ 25 1014.8
ATLANTIC S 41049 1850            78 80   60/  6/  8 1010.1S
WVE H/P(F/S)=  7/13 SWL H/P/D(F/S/D)=  7/ 10/13

E BAHAMAS  41046 1900            80 82   40/ 10/ 14 1008.6
NE BAHAMAS 41047 1850            74 80   40/ 16/ 23 1012.9F
WVE H/P(F/S)=  6/11 SWL H/P/D(F/S/D)=  5/ 50/11

120E CANVRL41010 NOT AVBL

END



USA.gov is the U.S. government's official web portal to all federal, state and local government web resources and services.